CW3179 Weather Reports


time (UTC)temp
C
wind
direction
speed
KPH
gust
KPH
rain 1hr
cm
rain 24hr
cm
rain mn
cm
humidity
%
barometer
mb
20260506083418 10 217 11.3 25.7 0.00 0.00 0.00 93 1020.5
20260506082410 10 157 11.3 25.7 0.00 0.00 0.00 93 1020.4
20260506081424 10 217 8.0 30.6 0.00 0.00 0.00 94 1020.3
20260506080421 10 215 11.3 25.7 0.00 0.00 0.00 95 1020.2
20260506073441 10 261 9.7 17.7 0.00 0.00 0.00 96 1020.6
20260506072413 9 270 12.9 24.1 0.00 0.00 0.00 97 1020.6
20260506071425 8 232 4.8 20.9 0.00 0.00 0.00 97 1020.6
20260506070417 8 307 6.4 14.5 0.00 0.00 0.00 97 1020.7
20260506062416 8 259 8.0 19.3 0.00 0.00 0.00 97 1021.0
20260506061409 8 253 6.4 25.7 0.00 0.00 0.00 97 1020.8
20260506060423 8 198 9.7 32.2 0.00 0.00 0.00 97 1020.6
20260506051416 7 240 6.4 22.5 0.00 0.00 0.00 96 1020.7
20260506050410 7 229 8.0 17.7 0.00 0.00 0.00 96 1021.0
20260506044415 7 177 11.3 29.0 0.00 0.00 0.00 94 1021.0
20260506043411 7 248 11.3 29.0 0.00 0.00 0.00 94 1020.9
20260506042424 7 165 11.3 20.9 0.00 0.00 0.00 93 1020.9
20260506041417 7 228 8.0 17.7 0.00 0.00 0.00 92 1020.8
20260506040412 7 215 6.4 16.1 0.00 0.00 0.00 91 1020.9
20260506035446 7 302 6.4 22.5 0.00 0.00 0.00 91 1020.8
20260506034417 7 284 6.4 25.7 0.00 0.00 0.00 90 1020.7
20260506033410 7 250 4.8 24.1 0.00 0.00 0.00 89 1020.5
20260506032424 7 212 8.0 22.5 0.00 0.00 0.00 89 1020.3
20260506031422 6 253 6.4 16.1 0.00 0.00 0.00 90 1020.2
20260506030415 6 207 8.0 16.1 0.00 0.00 0.00 89 1020.1
20260506025411 6 246 8.0 14.5 0.00 0.00 0.00 89 1020.2
20260506024410 6 223 3.2 17.7 0.00 0.00 0.00 88 1020.0
20260506023424 6 237 8.0 16.1 0.00 0.00 0.00 89 1020.0
20260506022417 6 196 8.0 22.5 0.00 0.00 0.00 88 1020.0
20260506021415 7 189 4.8 20.9 0.00 0.00 0.00 87 1020.0
20260506020427 7 167 6.4 22.5 0.00 0.00 0.00 86 1019.9
20260506015421 7 254 9.7 20.9 0.00 0.00 0.00 86 1019.7
20260506014435 7 266 9.7 20.9 0.00 0.00 0.00 86 1019.6
20260506013431 7 236 8.0 20.9 0.00 0.00 0.00 86 1019.4
20260506012425 7 244 12.9 27.4 0.00 0.00 0.00 86 1019.2
20260506011418 7 191 8.0 25.7 0.00 0.00 0.00 86 1019.2
20260506010411 7 222 11.3 24.1 0.00 0.00 0.00 86 1018.8
20260506005428 7 275 11.3 24.1 0.00 0.00 0.00 86 1018.7
20260506004421 7 273 8.0 27.4 0.00 0.00 0.00 86 1018.5
20260506003435 7 250 11.3 25.7 0.00 0.00 0.00 86 1018.3
20260506002418 6 198 11.3 27.4 0.00 0.00 0.00 87 1018.1
20260506001435 6 220 8.0 27.4 0.00 0.00 0.00 87 1017.9
20260506000428 6 233 12.9 24.1 0.00 0.00 0.00 87 1017.8
20260505235442 6 242 6.4 22.5 0.00 0.00 0.00 87 1017.7
20260505234417 6 229 6.4 17.7 0.00 0.00 0.00 85 1017.5
20260505233417 7 229 9.7 25.7 0.00 0.00 0.00 84 1017.3
20260505232411 7 300 11.3 27.4 0.00 0.00 0.00 83 1017.1
20260505231425 7 221 8.0 24.1 0.00 0.00 0.00 82 1017.0
20260505230442 8 206 11.3 19.3 0.00 0.00 0.00 81 1016.8
20260505225417 8 232 9.7 22.5 0.00 0.00 0.00 81 1016.7
20260505224428 8 225 9.7 24.1 0.00 0.00 0.00 80 1016.6
20260505223422 8 175 6.4 25.7 0.00 0.00 0.00 79 1016.2
20260505222440 8 257 9.7 25.7 0.00 0.00 0.00 78 1016.1
20260505221434 8 254 9.7 19.3 0.00 0.00 0.00 78 1016.0
20260505220426 9 211 6.4 24.1 0.00 0.00 0.00 76 1015.7
20260505215421 10 263 6.4 24.1 0.00 0.00 0.00 74 1015.6
20260505214422 10 266 9.7 20.9 0.00 0.00 0.00 73 1015.2
20260505213416 10 225 14.5 30.6 0.00 0.00 0.00 70 1015.1
20260505212409 11 266 8.0 27.4 0.00 0.00 0.00 68 1015.0
20260505211422 12 311 12.9 32.2 0.00 0.00 0.00 65 1014.7
20260505210421 12 252 11.3 25.7 0.00 0.00 0.00 61 1014.6
20260505205415 12 248 14.5 33.8 0.00 0.00 0.00 57 1014.6
20260505204447 12 244 14.5 30.6 0.00 0.00 0.00 54 1014.5
20260505203438 12 229 11.3 30.6 0.00 0.00 0.00 53 1014.5
20260505202412 12 277 11.3 25.7 0.00 0.00 0.00 52 1014.5
20260505201409 12 319 11.3 27.4 0.00 0.00 0.00 50 1014.4
20260505200424 12 274 9.7 24.1 0.00 0.00 0.00 47 1014.4
20260505195420 12 288 12.9 27.4 0.00 0.00 0.00 49 1014.2
20260505194413 11 281 12.9 27.4 0.00 0.00 0.00 51 1014.1
20260505193447 12 323 12.9 33.8 0.00 0.00 0.00 50 1013.9
20260505192420 12 43 14.5 33.8 0.00 0.00 0.00 50 1013.8
20260505191417 12 254 12.9 33.8 0.00 0.00 0.00 50 1013.7
20260505190410 12 253 14.5 25.7 0.00 0.00 0.00 51 1013.6
20260505185444 12 235 16.1 30.6 0.00 0.00 0.00 51 1013.4
20260505184419 12 338 11.3 29.0 0.00 0.00 0.00 52 1013.4
20260505183436 12 304 14.5 32.2 0.00 0.00 0.00 52 1013.6
20260505182429 12 287 12.9 30.6 0.00 0.00 0.00 52 1013.3
20260505181421 12 245 11.3 32.2 0.00 0.00 0.00 52 1013.4
20260505180416 12 301 9.7 30.6 0.00 0.00 0.00 53 1013.5
20260505175433 12 277 12.9 30.6 0.00 0.00 0.00 51 1013.4
20260505174426 13 170 12.9 35.4 0.00 0.00 0.00 50 1013.3
20260505173419 12 272 9.7 29.0 0.00 0.00 0.00 51 1013.3
20260505172413 13 306 11.3 29.0 0.00 0.00 0.00 48 1013.2
20260505171409 12 223 14.5 32.2 0.00 0.00 0.00 48 1012.9
20260505170444 12 256 12.9 29.0 0.00 0.00 0.00 49 1013.0
20260505165416 13 213 12.9 30.6 0.00 0.00 0.00 49 1012.8
20260505164414 12 257 11.3 25.7 0.00 0.00 0.00 49 1012.6
20260505163408 12 252 11.3 24.1 0.00 0.00 0.00 46 1012.7
20260505162420 12 198 11.3 25.7 0.00 0.00 0.00 47 1012.6
20260505161414 12 309 16.1 32.2 0.00 0.00 0.00 48 1012.4
20260505160411 12 311 9.7 24.1 0.00 0.00 0.00 48 1012.4
20260505152429 12 248 12.9 22.5 0.00 0.00 0.00 53 1011.9
20260505151440 11 252 9.7 24.1 0.00 0.00 0.00 56 1011.8
20260505150412 11 252 12.9 30.6 0.00 0.00 0.00 57 1011.7
20260505140421 11 282 14.5 25.7 0.00 0.00 0.00 65 1011.2
20260505124415 10 296 11.3 25.7 0.00 0.00 0.00 77 1010.4
20260505123447 10 214 12.9 30.6 0.00 0.00 0.00 78 1010.1
20260505122419 8 102 11.3 32.2 0.00 0.00 0.00 80 1010.0
20260505121414 8 211 12.9 24.1 0.00 0.00 0.00 81 1009.9
20260505120412 8 285 11.3 24.1 0.00 0.00 0.00 82 1010.0
20260505115421 8 238 12.9 25.7 0.00 0.00 0.00 82 1009.9
20260505114414 7 200 14.5 24.1 0.00 0.00 0.00 83 1009.8
20260505113410 7 252 11.3 30.6 0.00 0.00 0.00 83 1009.6
20260505112424 7 238 14.5 27.4 0.00 0.00 0.00 84 1009.2
20260505111418 7 236 8.0 27.4 0.00 0.00 0.00 85 1009.1
20260505110432 6 230 14.5 24.1 0.00 0.00 0.00 85 1009.1
20260505101427 6 200 12.9 25.7 0.00 0.00 0.00 87 1008.6
20260505100441 5 223 11.3 24.1 0.00 0.00 0.00 87 1008.4
20260505095414 5 276 12.9 30.6 0.00 0.00 0.00 87 1008.4
20260505094448 5 238 11.3 24.1 0.00 0.00 0.00 86 1008.4
20260505093423 6 327 11.3 19.3 0.00 0.00 0.00 85 1008.0
20260505092416 5 263 8.0 27.4 0.00 0.00 0.00 86 1007.6
20260505091428 5 226 8.0 22.5 0.00 0.00 0.00 87 1007.4
20260505090424 5 209 9.7 30.6 0.00 0.00 0.00 88 1007.4
20260505085437 4 88 9.7 19.3 0.00 0.00 0.00 89 1007.2
20260505084409 4 266 12.9 25.7 0.00 0.00 0.00 89 1007.6